N213MH KIWA-KMZJ

Flight info

Callsign N213MH
Flight time 0h 16m
Altitude 13000
Route BNYRD6 TFD
Aircraft GLF6/M-SBDE2E3FGHIJ4J5M1RWXY/LB1D1

Departure

Time 2026-05-08 01:24
Airport Mesa Gateway Airport (KIWA)

Arrival

Time 2026-05-08 01:41
Airport Pinal Airpark (KMZJ)
Time Latitude Longitude Altitude Speed Heading
2026-05-08 00:55 33.31503 -111.67311 1350 ft 0 kts 136°
2026-05-08 01:20 33.31500 -111.67291 1350 ft 6 kts 78°
2026-05-08 01:20 33.31534 -111.67297 1350 ft 10 kts 314°
2026-05-08 01:21 33.31598 -111.67371 1350 ft 12 kts 316°
2026-05-08 01:21 33.31651 -111.67409 1350 ft 7 kts
2026-05-08 01:21 33.31686 -111.67371 1350 ft 6 kts 48°
2026-05-08 01:21 33.31697 -111.67358 1350 ft 0 kts 47°
2026-05-08 01:23 33.31697 -111.67357 1350 ft 0 kts 47°
2026-05-08 01:23 33.31718 -111.67329 1350 ft 9 kts 53°
2026-05-08 01:23 33.31728 -111.67249 1352 ft 9 kts 115°
2026-05-08 01:23 33.31712 -111.67224 1352 ft 1 kts 133°
2026-05-08 01:24 33.31596 -111.67088 1355 ft 67 kts 135°
2026-05-08 01:24 33.31010 -111.66402 1393 ft 159 kts 135°
2026-05-08 01:24 33.30090 -111.65569 2279 ft 175 kts 161°
2026-05-08 01:24 33.28948 -111.65687 3385 ft 171 kts 207°
2026-05-08 01:25 33.28058 -111.66774 3799 ft 206 kts 246°
2026-05-08 01:25 33.27427 -111.68534 4141 ft 255 kts 249°
2026-05-08 01:25 33.26595 -111.70464 5197 ft 273 kts 239°
2026-05-08 01:25 33.25414 -111.72265 6388 ft 285 kts 230°
2026-05-08 01:26 33.24012 -111.73966 7630 ft 294 kts 224°
2026-05-08 01:26 33.22493 -111.75589 8953 ft 300 kts 221°
2026-05-08 01:26 33.20884 -111.77188 10233 ft 310 kts 220°
2026-05-08 01:26 33.19181 -111.78816 11622 ft 319 kts 219°
2026-05-08 01:27 33.17447 -111.80442 12799 ft 327 kts 218°
2026-05-08 01:27 33.15604 -111.82149 12876 ft 328 kts 218°
2026-05-08 01:27 33.13797 -111.83815 12893 ft 329 kts 218°
2026-05-08 01:27 33.11937 -111.85524 12887 ft 327 kts 218°
2026-05-08 01:28 33.10142 -111.87173 12886 ft 325 kts 218°
2026-05-08 01:28 33.08330 -111.88834 12890 ft 325 kts 218°
2026-05-08 01:28 33.06520 -111.90492 12895 ft 323 kts 218°
2026-05-08 01:28 33.04733 -111.92130 12895 ft 323 kts 217°
2026-05-08 01:29 33.02943 -111.93768 12897 ft 323 kts 218°
2026-05-08 01:29 33.01094 -111.95280 12887 ft 325 kts 203°
2026-05-08 01:29 32.98879 -111.95744 12902 ft 318 kts 173°
2026-05-08 01:29 32.96741 -111.95008 12900 ft 313 kts 154°
2026-05-08 01:30 32.94726 -111.94006 12652 ft 313 kts 154°
2026-05-08 01:30 32.92712 -111.92986 12333 ft 313 kts 154°
2026-05-08 01:30 32.90704 -111.91962 11995 ft 310 kts 154°
2026-05-08 01:30 32.88771 -111.90801 11634 ft 305 kts 138°
2026-05-08 01:31 32.87391 -111.88981 11509 ft 298 kts 124°
2026-05-08 01:31 32.86109 -111.86997 11516 ft 298 kts 124°
2026-05-08 01:31 32.84829 -111.85010 11520 ft 297 kts 124°
2026-05-08 01:31 32.83563 -111.83037 11516 ft 297 kts 124°
2026-05-08 01:32 32.82305 -111.81079 11512 ft 299 kts 124°
2026-05-08 01:32 32.81031 -111.79093 11510 ft 298 kts 124°
2026-05-08 01:32 32.79762 -111.77113 11101 ft 302 kts 124°
2026-05-08 01:32 32.78476 -111.75111 10611 ft 301 kts 124°
2026-05-08 01:33 32.77209 -111.73138 10131 ft 301 kts 124°
2026-05-08 01:33 32.75913 -111.71122 9638 ft 301 kts 125°
2026-05-08 01:33 32.74653 -111.69164 9163 ft 301 kts 124°
2026-05-08 01:33 32.73370 -111.67168 8683 ft 300 kts 124°
2026-05-08 01:34 32.72111 -111.65214 8211 ft 300 kts 125°
2026-05-08 01:34 32.70829 -111.63223 7734 ft 300 kts 125°
2026-05-08 01:34 32.69549 -111.61237 7258 ft 300 kts 125°
2026-05-08 01:34 32.68299 -111.59300 6657 ft 282 kts 125°
2026-05-08 01:35 32.67173 -111.57557 5962 ft 256 kts 125°
2026-05-08 01:35 32.66320 -111.55827 5265 ft 239 kts 111°
2026-05-08 01:35 32.65699 -111.54020 4591 ft 227 kts 109°
2026-05-08 01:35 32.65135 -111.52345 4113 ft 213 kts 109°
2026-05-08 01:36 32.64590 -111.50744 3613 ft 204 kts 110°
2026-05-08 01:36 32.64068 -111.49215 3315 ft 201 kts 110°
2026-05-08 01:36 32.63515 -111.47677 3153 ft 199 kts 117°
2026-05-08 01:36 32.62680 -111.46426 3162 ft 186 kts 132°
2026-05-08 01:37 32.61825 -111.45361 3256 ft 161 kts 132°
2026-05-08 01:37 32.61071 -111.44413 3268 ft 155 kts 132°
2026-05-08 01:37 32.60321 -111.43523 3248 ft 151 kts 134°
2026-05-08 01:37 32.59571 -111.42659 3159 ft 149 kts 134°
2026-05-08 01:38 32.58815 -111.41800 3058 ft 152 kts 135°
2026-05-08 01:38 32.58053 -111.40926 3008 ft 151 kts 134°
2026-05-08 01:38 32.57318 -111.40041 2914 ft 148 kts 133°
2026-05-08 01:38 32.56589 -111.39152 2772 ft 152 kts 133°
2026-05-08 01:39 32.55844 -111.38254 2700 ft 149 kts 134°
2026-05-08 01:39 32.55102 -111.37382 2579 ft 149 kts 135°
2026-05-08 01:39 32.54365 -111.36522 2444 ft 147 kts 135°
2026-05-08 01:39 32.53635 -111.35668 2320 ft 146 kts 135°
2026-05-08 01:40 32.52909 -111.34814 2182 ft 149 kts 135°
2026-05-08 01:40 32.52169 -111.33938 2030 ft 149 kts 136°
2026-05-08 01:40 32.51447 -111.33083 1899 ft 141 kts 135°
2026-05-08 01:40 32.50846 -111.32373 1894 ft 87 kts 134°
2026-05-08 01:41 32.50655 -111.32129 1897 ft 5 kts 85°
2026-05-08 01:41 32.50661 -111.32119 1897 ft 0 kts 42°
2026-05-08 01:41 32.50671 -111.32108 1897 ft 4 kts 42°